FW4834 Weather Reports


time (UTC)temp
C
wind
direction
speed
KPH
gust
KPH
rain 1hr
cm
rain 24hr
cm
rain mn
cm
humidity
%
barometer
mb
20260506051040 17 128 0.0 0.0 0.00 0.00 0.00 51 1011.8
20260506050541 17 9 0.0 0.0 0.00 0.00 0.00 50 1011.7
20260506045040 18 9 0.0 0.0 0.00 0.00 0.00 48 1011.5
20260506044541 18 9 0.0 0.0 0.00 0.00 0.00 46 1011.4
20260506044040 18 9 0.0 0.0 0.00 0.00 0.00 45 1011.3
20260506043545 18 346 0.0 0.0 0.00 0.00 0.00 45 1011.3
20260506043040 18 15 0.0 0.0 0.00 0.00 0.00 45 1011.3
20260506042541 18 328 0.0 0.0 0.00 0.00 0.00 44 1011.2
20260506042038 19 328 0.0 0.0 0.00 0.00 0.00 43 1011.1
20260506041540 19 302 0.0 0.0 0.00 0.00 0.00 43 1011.0
20260506041038 19 292 0.0 0.0 0.00 0.00 0.00 43 1011.0
20260506040538 19 292 0.0 0.0 0.00 0.00 0.00 43 1010.8
20260506040039 20 294 0.0 1.6 0.00 0.00 0.00 43 1010.7
20260506035538 20 292 0.0 1.6 0.00 0.00 0.00 42 1010.6
20260506035039 20 292 0.0 0.0 0.00 0.00 0.00 42 1010.6
20260506034540 20 315 0.0 0.0 0.00 0.00 0.00 41 1010.5
20260506034038 20 307 0.0 0.0 0.00 0.00 0.00 40 1010.3
20260506033539 21 331 0.0 0.0 0.00 0.00 0.00 40 1010.3
20260506033038 21 307 0.0 0.0 0.00 0.00 0.00 39 1010.2
20260506032538 21 334 0.0 0.0 0.00 0.00 0.00 38 1010.1
20260506032037 21 299 0.0 0.0 0.00 0.00 0.00 38 1010.1
20260506031539 22 306 0.0 0.0 0.00 0.00 0.00 38 1010.1
20260506031038 22 325 0.0 0.0 0.00 0.00 0.00 37 1010.0
20260506030538 22 331 0.0 0.0 0.00 0.00 0.00 37 1009.9
20260506030037 22 297 0.0 0.0 0.00 0.00 0.00 37 1009.9
20260506025537 22 311 0.0 1.6 0.00 0.00 0.00 37 1009.8
20260506025036 23 11 0.0 1.6 0.00 0.00 0.00 36 1009.7
20260506024540 23 341 0.0 0.0 0.00 0.00 0.00 36 1009.6
20260506024036 23 355 0.0 1.6 0.00 0.00 0.00 35 1009.5
20260506023536 23 5 0.0 1.6 0.00 0.00 0.00 34 1009.4
20260506023036 23 335 0.0 1.6 0.00 0.00 0.00 34 1009.4
20260506022536 23 9 0.0 1.6 0.00 0.00 0.00 34 1009.4
20260506022034 23 317 0.0 1.6 0.00 0.00 0.00 35 1009.3
20260506021534 24 332 0.0 9.7 0.00 0.00 0.00 35 1009.2
20260506021034 24 306 0.0 9.7 0.00 0.00 0.00 35 1009.1
20260506020533 24 306 0.0 9.7 0.00 0.00 0.00 36 1009.1
20260506020033 25 333 0.0 6.4 0.00 0.00 0.00 35 1009.0
20260506015534 25 299 0.0 1.6 0.00 0.00 0.00 37 1009.0
20260506015033 25 319 0.0 4.8 0.00 0.00 0.00 39 1009.0
20260506014532 25 299 0.0 4.8 0.00 0.00 0.00 39 1009.0
20260506014034 25 293 0.0 0.0 0.00 0.00 0.00 39 1009.0
20260506013532 25 288 0.0 0.0 0.00 0.00 0.00 39 1009.0
20260506013033 25 271 0.0 0.0 0.00 0.00 0.00 39 1008.9
20260506012532 25 350 0.0 3.2 0.00 0.00 0.00 38 1009.0
20260506012031 25 271 0.0 3.2 0.00 0.00 0.00 40 1009.0
20260506011558 25 298 0.0 0.0 0.00 0.00 0.00 39 1009.0
20260506011030 25 301 0.0 0.0 0.00 0.00 0.00 40 1009.0
20260506010530 25 5 0.0 6.4 0.00 0.00 0.00 39 1008.9
20260506010030 25 312 0.0 6.4 0.00 0.00 0.00 39 1008.9
20260506005529 25 252 0.0 1.6 0.00 0.00 0.00 39 1008.9
20260506005029 25 294 0.0 1.6 0.00 0.00 0.00 39 1008.9
20260506004529 25 305 0.0 1.6 0.00 0.00 0.00 39 1008.8
20260506004030 25 265 0.0 1.6 0.00 0.00 0.00 39 1008.7
20260506003529 25 273 0.0 4.8 0.00 0.00 0.00 39 1008.8
20260506003029 26 290 0.0 0.0 0.00 0.00 0.00 38 1008.8
20260506002530 25 267 0.0 0.0 0.00 0.00 0.00 40 1008.8
20260506002031 25 263 0.0 0.0 0.00 0.00 0.00 39 1008.8
20260506001527 25 38 0.0 0.0 0.00 0.00 0.00 40 1008.8
20260506001027 25 334 0.0 0.0 0.00 0.00 0.00 40 1008.8
20260506000527 25 249 0.0 0.0 0.00 0.00 0.00 40 1008.7
20260506000044 25 325 0.0 0.0 0.00 0.00 0.00 40 1008.8
20260505235526 25 26 0.0 1.6 0.00 0.00 0.00 41 1008.8
20260505235027 25 355 0.0 1.6 0.00 0.00 0.00 41 1008.8
20260505234538 25 305 0.0 0.0 0.00 0.00 0.00 41 1008.9
20260505234024 25 355 0.0 6.4 0.00 0.00 0.00 40 1009.0
20260505233523 25 334 0.0 6.4 0.00 0.00 0.00 40 1009.0
20260505233026 25 305 0.0 0.0 0.00 0.00 0.00 41 1009.0
20260505232526 25 344 0.0 0.0 0.00 0.00 0.00 40 1009.1
20260505232022 25 339 0.0 0.0 0.00 0.00 0.00 39 1009.0
20260505231522 25 72 0.0 0.0 0.00 0.00 0.00 39 1009.1
20260505231021 25 19 0.0 3.2 0.00 0.00 0.00 39 1009.2
20260505230521 25 317 0.0 3.2 0.00 0.00 0.00 38 1009.2
20260505230045 25 236 0.0 0.0 0.00 0.00 0.00 39 1009.2
20260505225523 25 10 0.0 0.0 0.00 0.00 0.00 38 1009.2
20260505225021 25 14 0.0 0.0 0.00 0.00 0.00 39 1009.3
20260505224534 25 315 0.0 1.6 0.00 0.00 0.00 39 1009.4
20260505224020 25 322 0.0 1.6 0.00 0.00 0.00 39 1009.4
20260505223519 25 12 0.0 0.0 0.00 0.00 0.00 38 1009.4
20260505223023 25 308 0.0 0.0 0.00 0.00 0.00 38 1009.6
20260505222522 25 261 0.0 0.0 0.00 0.00 0.00 38 1009.6
20260505222016 25 273 0.0 1.6 0.00 0.00 0.00 37 1009.6
20260505221518 24 264 0.0 1.6 0.00 0.00 0.00 38 1009.7
20260505221017 24 296 0.0 1.6 0.00 0.00 0.00 40 1009.7
20260505220515 24 291 0.0 1.6 0.00 0.00 0.00 37 1009.7
20260505220015 24 252 0.0 0.0 0.00 0.00 0.00 39 1009.9
20260505215516 24 346 0.0 1.6 0.00 0.00 0.00 40 1009.9
20260505215015 24 257 0.0 1.6 0.00 0.00 0.00 40 1010.0
20260505214519 24 252 0.0 0.0 0.00 0.00 0.00 39 1009.9
20260505214013 23 75 0.0 1.6 0.00 0.00 0.00 41 1010.0
20260505213511 23 344 0.0 1.6 0.00 0.00 0.00 41 1010.0
20260505213010 23 274 0.0 0.0 0.00 0.00 0.00 45 1010.0
20260505212510 23 299 0.0 4.8 0.00 0.00 0.00 45 1010.1
20260505212013 22 249 0.0 4.8 0.00 0.00 0.00 45 1010.1
20260505211514 22 296 0.0 1.6 0.00 0.00 0.00 45 1010.0
20260505211050 22 259 0.0 1.6 0.00 0.00 0.00 45 1010.2
20260505210506 22 254 0.0 4.8 0.00 0.00 0.00 46 1010.3
20260505210007 22 277 0.0 4.8 0.00 0.00 0.00 44 1010.3
20260505205506 22 284 0.0 0.0 0.00 0.00 0.00 45 1010.3
20260505205003 22 279 0.0 0.0 0.00 0.00 0.00 45 1010.5
20260505204504 21 259 0.0 3.2 0.00 0.00 0.00 45 1010.5
20260505204003 21 261 0.0 3.2 0.00 0.00 0.00 45 1010.6
20260505203502 21 360 0.0 0.0 0.00 0.00 0.00 46 1010.6
20260505203007 21 290 0.0 0.0 0.00 0.00 0.00 46 1010.6
20260505202502 21 303 0.0 0.0 0.00 0.00 0.00 48 1010.6
20260505202002 21 263 0.0 0.0 0.00 0.00 0.00 48 1010.6
20260505201559 21 284 0.0 0.0 0.00 0.00 0.00 50 1010.7
20260505201058 20 234 0.0 1.6 0.00 0.00 0.00 52 1010.8
20260505200558 20 267 0.0 1.6 0.00 0.00 0.00 52 1010.9
20260505200058 20 261 0.0 0.0 0.00 0.00 0.00 52 1010.9
20260505195601 20 319 0.0 0.0 0.00 0.00 0.00 52 1010.9
20260505195057 20 57 0.0 0.0 0.00 0.00 0.00 50 1010.8
20260505194616 20 279 0.0 0.0 0.00 0.00 0.00 53 1010.9
20260505194054 20 12 0.0 1.6 0.00 0.00 0.00 53 1011.0
20260505193553 20 302 0.0 1.6 0.00 0.00 0.00 53 1011.0
20260505193052 20 278 0.0 0.0 0.00 0.00 0.00 53 1010.9
20260505192549 19 317 0.0 0.0 0.00 0.00 0.00 52 1011.0
20260505192048 19 226 0.0 0.0 0.00 0.00 0.00 52 1011.0
20260505191556 19 268 0.0 0.0 0.00 0.00 0.00 53 1011.0
20260505191046 19 88 0.0 0.0 0.00 0.00 0.00 53 1011.0
20260505190547 18 264 0.0 0.0 0.00 0.00 0.00 54 1011.1
20260505190043 19 244 0.0 0.0 0.00 0.00 0.00 55 1011.1
20260505185545 18 269 0.0 0.0 0.00 0.00 0.00 55 1011.2
20260505185041 18 257 0.0 0.0 0.00 0.00 0.00 57 1011.2
20260505184540 18 242 0.0 0.0 0.00 0.00 0.00 56 1011.2
20260505184038 18 236 0.0 0.0 0.00 0.00 0.00 58 1011.2
20260505183537 17 295 0.0 0.0 0.00 0.00 0.00 59 1011.3
20260505183035 17 269 0.0 0.0 0.00 0.00 0.00 58 1011.3
20260505182534 17 232 0.0 0.0 0.00 0.00 0.00 58 1011.3
20260505182033 18 277 0.0 0.0 0.00 0.00 0.00 58 1011.3
20260505181536 18 262 0.0 0.0 0.00 0.00 0.00 59 1011.3
20260505181030 17 216 0.0 0.0 0.00 0.00 0.00 60 1011.3
20260505180531 17 271 0.0 0.0 0.00 0.00 0.00 60 1011.4
20260505180040 17 243 0.0 0.0 0.00 0.00 0.00 60 1011.4
20260505175530 17 311 0.0 0.0 0.00 0.00 0.00 60 1011.4
20260505175029 17 261 0.0 1.6 0.00 0.00 0.00 61 1011.4
20260505174532 17 260 0.0 1.6 0.00 0.00 0.00 60 1011.4
20260505174031 17 221 0.0 0.0 0.00 0.00 0.00 60 1011.4
20260505173531 17 233 0.0 0.0 0.00 0.00 0.00 63 1011.4
20260505173028 16 234 0.0 0.0 0.00 0.00 0.00 62 1011.4
20260505172525 16 262 0.0 0.0 0.00 0.00 0.00 64 1011.4
20260505172022 16 326 0.0 0.0 0.00 0.00 0.00 65 1011.5
20260505171521 16 307 0.0 0.0 0.00 0.00 0.00 66 1011.5
20260505171019 15 303 0.0 0.0 0.00 0.00 0.00 68 1011.5
20260505170518 15 65 0.0 0.0 0.00 0.00 0.00 69 1011.5
20260505170020 15 257 0.0 0.0 0.00 0.00 0.00 70 1011.7
20260505165515 14 259 0.0 0.0 0.00 0.00 0.00 71 1011.7
20260505165014 14 350 0.0 0.0 0.00 0.00 0.00 72 1011.7
20260505164513 13 272 0.0 0.0 0.00 0.00 0.00 73 1011.8
20260505164012 13 286 0.0 0.0 0.00 0.00 0.00 74 1011.8
20260505163514 13 286 0.0 0.0 0.00 0.00 0.00 74 1011.8
20260505163015 13 259 0.0 0.0 0.00 0.00 0.00 75 1011.8
20260505162508 13 259 0.0 0.0 0.00 0.00 0.00 76 1011.8
20260505162010 13 273 0.0 0.0 0.00 0.00 0.00 76 1011.8
20260505161507 13 273 0.0 0.0 0.00 0.00 0.00 76 1011.8
20260505161007 13 265 0.0 0.0 0.00 0.00 0.00 75 1011.8
20260505160507 13 266 0.0 0.0 0.00 0.00 0.00 76 1011.8
20260505153004 12 266 0.0 0.0 0.00 0.00 0.00 79 1011.7
20260505152501 12 264 0.0 0.0 0.00 0.00 0.00 79 1011.7
20260505152101 12 244 0.0 0.0 0.00 0.00 0.00 79 1011.7
20260505151601 12 279 0.0 0.0 0.00 0.00 0.00 79 1011.6
20260505151058 12 279 0.0 0.0 0.00 0.00 0.00 80 1011.5
20260505150557 12 279 0.0 0.0 0.00 0.00 0.00 80 1011.5
20260505150111 12 279 0.0 0.0 0.00 0.00 0.00 80 1011.5
20260505140544 12 297 0.0 0.0 0.00 0.00 0.00 83 1011.2
20260505125034 12 301 0.0 0.0 0.00 0.00 0.00 82 1010.5
20260505124542 12 309 0.0 0.0 0.00 0.00 0.00 81 1010.5
20260505124033 12 301 0.0 0.0 0.00 0.00 0.00 82 1010.4
20260505123533 12 301 0.0 0.0 0.00 0.00 0.00 82 1010.5
20260505123035 12 316 0.0 0.0 0.00 0.00 0.00 81 1010.4
20260505122532 12 313 0.0 0.0 0.00 0.00 0.00 81 1010.4
20260505122032 12 325 0.0 0.0 0.00 0.00 0.00 81 1010.4
20260505121559 12 343 0.0 0.0 0.00 0.00 0.00 81 1010.4
20260505121031 12 313 0.0 0.0 0.00 0.00 0.00 81 1010.3
20260505120530 12 313 0.0 0.0 0.00 0.00 0.00 81 1010.3
20260505120029 12 309 0.0 0.0 0.00 0.00 0.00 81 1010.3
20260505115530 12 299 0.0 0.0 0.00 0.00 0.00 81 1010.2
20260505115029 12 309 0.0 0.0 0.00 0.00 0.00 81 1010.1
20260505114530 12 309 0.0 0.0 0.00 0.00 0.00 81 1010.1
20260505114028 12 341 0.0 0.0 0.00 0.00 0.00 81 1010.1
20260505113528 12 320 0.0 0.0 0.00 0.00 0.00 81 1010.0
20260505113030 12 313 0.0 0.0 0.00 0.00 0.00 81 1010.0
20260505112530 12 303 0.0 0.0 0.00 0.00 0.00 82 1010.0
20260505112027 12 301 0.0 0.0 0.00 0.00 0.00 82 1010.0
20260505111534 12 298 0.0 0.0 0.00 0.00 0.00 82 1009.9
20260505111025 12 300 0.0 0.0 0.00 0.00 0.00 82 1009.9
20260505110526 12 312 0.0 0.0 0.00 0.00 0.00 82 1009.8
20260505102024 12 329 0.0 0.0 0.00 0.00 0.00 82 1009.7
20260505101524 12 348 0.0 0.0 0.00 0.00 0.00 82 1009.7
20260505101023 12 321 0.0 0.0 0.00 0.00 0.00 82 1009.7
20260505100524 12 355 0.0 0.0 0.00 0.00 0.00 82 1009.7
20260505100034 12 317 0.0 0.0 0.00 0.00 0.00 82 1009.7
20260505095524 12 320 0.0 0.0 0.00 0.00 0.00 82 1009.7
20260505095022 12 311 0.0 1.6 0.00 0.00 0.00 82 1009.7
20260505094522 12 355 0.0 0.0 0.00 0.00 0.00 82 1009.8
20260505094022 12 316 0.0 0.0 0.00 0.00 0.00 82 1009.8
20260505093523 12 313 0.0 0.0 0.00 0.00 0.00 82 1009.8
20260505093028 12 330 0.0 0.0 0.00 0.00 0.00 82 1009.9
20260505092522 12 321 0.0 1.6 0.00 0.00 0.00 82 1009.8
20260505092022 12 15 0.0 1.6 0.00 0.00 0.00 82 1009.8
20260505091527 12 27 0.0 1.6 0.00 0.00 0.00 82 1009.8
20260505091021 12 319 0.0 0.0 0.00 0.00 0.00 81 1009.7
20260505090519 12 355 0.0 1.6 0.00 0.00 0.00 81 1009.7
20260505090020 12 333 0.0 4.8 0.00 0.00 0.00 81 1009.8
20260505085519 12 348 0.0 4.8 0.00 0.00 0.00 81 1009.8
20260505085022 12 350 0.0 1.6 0.00 0.00 0.00 81 1009.7
20260505084522 12 360 0.0 0.0 0.00 0.00 0.00 80 1009.8
20260505084018 12 333 0.0 4.8 0.00 0.00 0.00 80 1009.7
20260505083519 12 347 0.0 4.8 0.00 0.00 0.00 80 1009.7
20260505083029 12 311 0.0 1.6 0.00 0.00 0.00 80 1009.7
20260505082516 12 336 0.0 1.6 0.00 0.00 0.00 80 1009.7
20260505082017 12 355 0.0 1.6 0.00 0.00 0.00 80 1009.7
20260505081517 12 309 0.0 12.9 0.00 0.00 0.00 80 1009.7
20260505081015 12 355 1.6 12.9 0.00 0.00 0.00 80 1009.7
20260505080514 12 360 0.0 6.4 0.00 0.00 0.00 80 1009.7
20260505080017 12 306 0.0 4.8 0.00 0.00 0.00 79 1009.7
20260505075513 12 311 0.0 1.6 0.00 0.00 0.00 79 1009.6
20260505075013 12 335 0.0 1.6 0.00 0.00 0.00 79 1009.6
20260505074512 12 336 0.0 6.4 0.00 0.00 0.00 78 1009.6
20260505074014 13 5 0.0 6.4 0.00 0.00 0.00 78 1009.6
20260505073511 13 336 0.0 4.8 0.00 0.00 0.00 78 1009.5
20260505073012 13 344 0.0 4.8 0.00 0.00 0.00 77 1009.5
20260505072511 13 5 0.0 1.6 0.00 0.00 0.00 77 1009.5
20260505072009 13 355 0.0 1.6 0.00 0.00 0.00 77 1009.4
20260505071508 13 333 0.0 1.6 0.00 0.00 0.00 76 1009.4
20260505071008 13 334 0.0 14.5 0.00 0.00 0.00 76 1009.3
20260505070511 13 303 0.0 14.5 0.00 0.00 0.00 76 1009.4
20260505070006 13 334 0.0 8.0 0.00 0.00 0.00 75 1009.2
20260505065507 13 308 0.0 8.0 0.00 0.00 0.00 75 1009.2
20260505065010 13 355 0.0 9.7 0.00 0.00 0.00 75 1009.1
20260505064506 14 343 0.0 14.5 0.00 0.00 0.00 74 1009.1
20260505064005 14 340 1.6 14.5 0.00 0.00 0.00 74 1009.0
20260505063505 14 333 0.0 16.1 0.00 0.00 0.00 74 1008.9
20260505063005 14 5 1.6 19.3 0.00 0.00 0.00 73 1008.9
20260505062506 14 302 1.6 19.3 0.00 0.00 0.00 73 1008.8
20260505062004 14 318 0.0 19.3 0.00 0.00 0.00 73 1008.7
20260505061505 15 323 1.6 22.5 0.00 0.00 0.00 73 1008.7
20260505061004 15 348 1.6 22.5 0.00 0.00 0.00 72 1008.7
20260505060504 15 311 0.0 17.7 0.00 0.00 0.00 72 1008.6